Vertical_Velocity
5 5 3 1 3 1 0 3 -0 5 -0 3 6 3 1 -0 3 0 3 2 3 1 -2 -1 -1 -4 1 0 -2 1 1 -0 -8 -3 -5 -2 -3 -8 -5 -2 -1 -1 -5
4 4 2 4 2 -0 -1 -3 -0 -1 2 4 1 1 5 4 2 2 3 -1 1 -2 -2 -0 -0 1 -5 2 1 1 0 1 -1 -9 -1 -5 -6 -4 -4 -4 -5 -2 -4
4 1 4 3 4 1 -1 2 -1 0 1 1 3 2 -0 -0 1 2 5 3 3 -0 0 2 -1 0 -1 -3 1 -0 2 -1 0 -1 -8 -1 -6 -2 -6 -2 -4 -3 -4
5 2 1 2 2 0 -3 1 -3 -3 -0 3 2 1 -1 2 3 4 4 3 0 2 -1 1 -2 -2 1 -3 0 2 1 -1 1 -1 -0 -2 -4 -4 -2 -6 -10 -1 -5
13 6 1 2 4 2 3 -1 1 2 -0 2 1 1 3 3 -1 -0 1 2 1 3 3 0 -1 -0 0 -1 -0 2 -0 -1 -0 -1 -2 -5 -4 -4 -2 -4 -8 -4 2
-4 6 5 2 2 2 5 1 2 2 -1 0 -1 0 0 -1 -1 4 4 3 1 1 -0 0 1 -1 -3 2 0 1 -0 -0 -1 -4 -3 -3 -4 -3 -1 -3 -5 -4 -23
-1 9 3 3 1 3 1 3 2 1 1 -0 1 1 1 3 5 8 4 4 3 0 0 1 0 -4 -3 1 2 0 0 -1 -1 -1 -4 1 -6 1 -0 -6 -4 0 -1
0 2 6 4 3 6 4 2 -2 3 -1 -3 -4 0 4 3 5 8 4 6 1 5 2 1 -0 -1 3 2 3 1 3 1 -1 -1 0 -1 -3 -3 -0 4 1 4 0
-2 2 7 5 3 4 3 1 5 2 -1 -3 -1 1 3 6 0 1 0 5 2 2 3 1 -0 0 -0 -0 0 3 1 1 -2 -1 -1 -1 0 -1 1 0 -3 -9 -6
-2 -1 2 5 5 2 2 0 1 3 3 0 1 1 7 10 3 4 5 5 1 2 2 3 0 -1 2 1 -1 -0 0 -0 -1 -0 0 0 0 -1 2 4 1 -1 -2
-1 -4 1 3 4 2 3 3 0 -1 -1 -1 3 3 6 5 4 -2 4 1 3 -0 3 -2 -4 1 2 1 -1 0 -2 -7 -3 -3 -5 -3 -4 -5 -6 -4 -2 -1 0
-1 -1 -1 2 5 4 5 3 1 2 3 2 4 5 5 3 7 -3 4 7 4 5 -5 -2 1 2 2 0 -0 -2 -3 -2 -3 -2 -2 -4 -4 -5 -3 0 1 0 -5
2 0 -2 -2 1 2 4 3 1 4 5 1 2 2 -1 2 7 2 4 4 5 -1 -1 5 3 1 0 3 2 1 0 0 -1 -1 -2 0 0 1 -2 -4 -3 2 -2
-1 1 0 -3 -0 1 3 4 5 2 1 5 0 0 2 2 4 1 4 5 2 -2 -1 -1 0 2 3 2 1 0 -1 -2 -4 -3 -2 1 -2 -4 -5 1 1 -3 -0
-0 1 1 2 -2 -0 3 1 1 4 2 -3 -1 1 -6 -2 -1 2 -2 -8 -6 2 -2 -3 0 2 2 2 2 -1 -3 -3 -4 -2 0 -0 -0 -1 -4 1 -1 -3 -3
0 3 1 2 1 -1 0 0 2 5 2 1 5 2 11 7 1 -6 -1 2 1 -1 -4 -0 1 3 2 0 1 0 -3 -3 -3 -1 -5 -2 -2 -1 -4 -0 -0 1 -4
1 4 3 3 3 1 -1 -1 -3 4 4 2 1 0 -1 -20 1 3 4 4 3 -4 2 2 2 0 -1 2 -0 -4 -1 -5 3 -2 -4 -2 2 -2 -3 -7 -2 -1 -3
1 5 3 3 1 2 -1 2 -0 -4 2 5 15 -3 12 9 6 2 4 1 -5 2 4 1 -0 0 1 2 -2 -1 -2 -0 -2 -6 1 2 -2 -2 -3 -4 -4 -6 -0
1 3 2 3 1 3 -1 9 4 -0 5 8 11 16 20 11 4 4 -1 -1 -1 0 1 1 -0 -0 2 -1 -2 -0 0 -5 -6 -1 -0 2 -1 -3 -5 -2 -6 -1 -0
-1 2 2 3 7 6 5 2 8 10 2 5 5 3 6 -4 -1 -4 -1 5 1 1 -0 1 -1 1 0 1 1 -3 -5 -2 -3 -2 3 2 -3 1 -3 -5 -2 -5 -2
2 8 1 3 5 7 5 -1 0 0 1 0 4 6 -0 -5 -5 -3 0 1 3 3 2 0 0 3 3 -2 -3 -1 -4 -2 0 1 -2 -3 -1 -4 -8 0 -5 -3 2
1 1 4 1 0 1 -0 2 1 -3 -1 -1 2 6 7 -1 -6 -2 3 3 1 -1 -1 2 3 0 -3 -5 -4 -5 -1 1 2 0 -2 -4 -2 -4 4 -5 -5 1 0
7 7 5 5 6 3 -0 1 -2 -2 -4 -4 -3 -3 -3 -1 1 2 3 -1 1 -0 -1 3 2 -0 -2 -3 -2 -3 -1 0 -0 -1 -0 -3 -0 -1 -1 -4 -5 0 -1
2 1 1 0 0 1 2 3 2 2 -1 -1 -4 -4 -2 -2 0 2 2 -3 3 1 2 1 0 -1 -1 2 0 -0 1 2 3 -9 -4 8 2 -0 -3 -6 -1 5 -0
5 2 1 -2 2 5 2 3 1 1 0 -2 -4 -2 -2 -2 -1 1 -2 -0 1 -1 1 1 2 -2 0 -1 -2 -1 2 1 1 0 4 5 2 -2 -0 -4 3 2 -1
2 1 0 -1 1 1 2 1 3 1 0 2 1 -1 -1 1 -0 -2 -0 -0 2 2 -1 0 -0 -3 -4 -1 -0 -1 3 1 -7 5 4 1 1 -2 -4 -6 2 -2 1
Height
1401 1407 1411 1415 1421 1425 1429 1435 1442 1449 1455 1460 1468 1473 1479 1484 1490 1495 1500 1504 1507 1510 1514 1519 1521 1523 1525 1522 1523 1522 1520 1517 1516 1517 1517 1515 1512 1508 1505 1502 1498 1493 1487
1396 1402 1405 1411 1415 1420 1421 1427 1435 1441 1447 1454 1460 1467 1472 1477 1483 1488 1493 1498 1501 1504 1509 1512 1515 1517 1519 1522 1519 1518 1516 1513 1511 1510 1510 1508 1505 1501 1497 1493 1489 1485 1479
1391 1396 1401 1404 1408 1411 1414 1420 1426 1433 1439 1446 1452 1457 1463 1470 1476 1482 1487 1491 1496 1500 1505 1508 1510 1515 1514 1516 1516 1513 1511 1509 1508 1505 1503 1502 1498 1495 1489 1485 1480 1474 1468
1386 1389 1393 1397 1402 1404 1408 1414 1418 1426 1432 1438 1443 1449 1455 1463 1469 1475 1480 1485 1491 1494 1499 1504 1505 1509 1510 1511 1511 1509 1505 1505 1503 1501 1498 1495 1492 1489 1483 1475 1468 1465 1456
1383 1385 1389 1393 1397 1401 1402 1407 1413 1418 1424 1431 1437 1443 1449 1454 1460 1466 1474 1479 1484 1489 1493 1497 1500 1504 1504 1505 1506 1504 1500 1500 1498 1496 1493 1489 1486 1482 1477 1471 1462 1453 1448
1378 1382 1385 1387 1390 1394 1396 1402 1408 1411 1416 1423 1430 1435 1441 1446 1453 1460 1467 1471 1478 1483 1488 1492 1494 1497 1499 1499 1500 1498 1496 1494 1492 1490 1487 1484 1482 1478 1473 1467 1459 1450 1436
1375 1378 1380 1381 1385 1389 1393 1398 1402 1406 1412 1416 1423 1429 1435 1440 1445 1453 1460 1466 1472 1477 1482 1486 1488 1491 1494 1493 1493 1493 1491 1489 1487 1485 1483 1482 1477 1474 1468 1461 1456 1449 1442
1372 1375 1377 1379 1381 1385 1388 1392 1398 1402 1406 1411 1417 1425 1430 1435 1440 1446 1453 1459 1467 1473 1477 1480 1482 1486 1488 1488 1488 1487 1486 1484 1483 1481 1479 1477 1473 1470 1465 1459 1451 1443 1435
1369 1372 1374 1376 1378 1381 1384 1388 1392 1397 1402 1407 1414 1420 1425 1430 1435 1440 1447 1453 1462 1467 1471 1474 1477 1480 1482 1482 1482 1482 1480 1479 1478 1477 1476 1473 1470 1466 1462 1452 1446 1437 1423
1366 1368 1370 1373 1374 1377 1381 1384 1388 1393 1399 1406 1412 1416 1422 1425 1430 1434 1442 1448 1455 1461 1465 1469 1472 1475 1476 1476 1476 1476 1475 1474 1472 1471 1470 1468 1465 1461 1457 1450 1442 1433 1425
1362 1365 1367 1369 1370 1374 1377 1381 1385 1389 1396 1403 1408 1412 1417 1421 1426 1431 1438 1444 1449 1455 1460 1463 1468 1470 1470 1470 1470 1470 1468 1468 1467 1465 1463 1461 1458 1453 1449 1445 1439 1431 1422
1359 1360 1363 1365 1367 1370 1375 1377 1381 1386 1391 1397 1403 1409 1413 1419 1424 1428 1434 1440 1446 1451 1455 1460 1464 1465 1466 1465 1465 1463 1463 1463 1461 1460 1457 1454 1449 1445 1441 1435 1430 1422 1416
1353 1355 1357 1359 1364 1368 1371 1373 1377 1382 1387 1392 1398 1403 1409 1416 1422 1426 1432 1437 1442 1446 1452 1456 1459 1461 1462 1461 1460 1459 1459 1458 1457 1455 1451 1447 1443 1438 1432 1425 1419 1412 1403
1349 1351 1353 1356 1360 1363 1366 1370 1373 1377 1382 1388 1393 1399 1405 1412 1418 1423 1429 1433 1437 1443 1448 1451 1456 1458 1458 1457 1456 1455 1455 1454 1452 1450 1447 1442 1437 1432 1427 1420 1409 1400 1391
1347 1348 1350 1352 1355 1359 1362 1366 1370 1375 1379 1383 1387 1393 1398 1405 1412 1417 1422 1429 1436 1441 1443 1448 1452 1453 1453 1453 1452 1451 1451 1449 1448 1446 1442 1436 1431 1425 1420 1414 1404 1394 1386
1345 1346 1347 1348 1351 1354 1359 1363 1368 1373 1377 1381 1386 1391 1399 1403 1410 1418 1425 1429 1433 1437 1440 1445 1448 1449 1448 1448 1447 1446 1446 1446 1443 1439 1437 1432 1426 1420 1413 1407 1400 1390 1380
1343 1344 1344 1346 1349 1351 1356 1361 1366 1372 1377 1379 1384 1390 1397 1404 1413 1418 1423 1427 1431 1434 1439 1443 1444 1444 1444 1444 1442 1442 1442 1440 1438 1434 1431 1427 1421 1415 1408 1401 1394 1386 1377
1340 1341 1342 1344 1347 1350 1355 1360 1365 1371 1375 1379 1385 1392 1401 1405 1411 1416 1420 1424 1428 1434 1437 1439 1440 1441 1441 1440 1439 1439 1437 1436 1434 1431 1426 1422 1415 1411 1404 1398 1391 1384 1375
1339 1340 1341 1344 1347 1351 1356 1362 1365 1372 1379 1381 1385 1395 1401 1405 1409 1415 1420 1423 1428 1431 1434 1436 1437 1438 1438 1437 1436 1435 1433 1432 1430 1427 1423 1417 1411 1407 1401 1394 1388 1384 1374
1341 1342 1343 1346 1350 1353 1358 1364 1369 1372 1379 1385 1386 1395 1398 1402 1407 1413 1421 1425 1428 1431 1433 1434 1435 1436 1435 1433 1432 1431 1430 1428 1426 1422 1417 1412 1409 1404 1397 1391 1387 1377 1369
1345 1346 1347 1350 1353 1356 1360 1365 1369 1375 1380 1385 1389 1395 1397 1402 1409 1417 1423 1426 1428 1430 1431 1432 1432 1432 1431 1430 1430 1429 1427 1424 1420 1416 1412 1410 1406 1399 1394 1390 1382 1375 1367
1349 1349 1351 1353 1356 1360 1364 1368 1372 1379 1386 1391 1397 1401 1403 1407 1413 1420 1425 1424 1427 1429 1431 1431 1430 1429 1427 1427 1427 1427 1423 1419 1415 1411 1408 1405 1401 1395 1391 1385 1378 1370 1362
1353 1353 1355 1359 1362 1366 1369 1375 1380 1385 1390 1394 1398 1402 1406 1413 1418 1424 1423 1425 1426 1427 1429 1429 1427 1426 1424 1425 1424 1423 1419 1415 1411 1408 1405 1401 1398 1394 1388 1380 1373 1366 1359
1358 1359 1360 1363 1367 1371 1374 1379 1385 1390 1394 1398 1402 1407 1411 1416 1421 1423 1423 1426 1427 1427 1427 1426 1425 1424 1423 1423 1421 1420 1416 1412 1407 1403 1403 1400 1395 1390 1384 1378 1371 1364 1356
1363 1365 1367 1370 1374 1377 1379 1385 1388 1392 1397 1401 1405 1410 1413 1417 1421 1422 1424 1426 1426 1425 1425 1424 1422 1421 1421 1419 1418 1415 1412 1407 1405 1402 1400 1396 1392 1387 1380 1374 1368 1360 1352
1370 1371 1372 1376 1380 1382 1386 1389 1393 1396 1402 1405 1408 1412 1415 1419 1421 1422 1424 1424 1424 1423 1422 1421 1419 1418 1418 1417 1414 1411 1407 1404 1402 1400 1396 1392 1387 1383 1376 1370 1365 1357 1348